Location: Observatoire
(46.1952°N, 5.3391°E)
Time: 03:14:14
(UTC+02:00)

ITAMSAT 1 - Pass Details

Date: 28 April 2024
Orbit: 782 x 796 km, 98.8° (Epoch: 24 May)

Event Time Altitude Azimuth Distance (km) Brightness Sun altitude
Exits shadow 21:16:30 - 142° (SE) 2,853 10.0 -6.0°
Reaches altitude 10° 21:17:47 10° 138° (SE) 2,361 9.5 -6.2°
Maximum altitude 21:22:42 44° 68° (ENE) 1,093 8.2 -6.9°
Drops below altitude 10° 21:27:39 10° 357° (N) 2,373 10.6 -7.6°
Sets 21:30:04 0° 352° (N) 3,305 11.5 -8.0°
